| time (UTC) | temp F | wind direction | speed knots | gust knots | rain 1hr in | rain 24hr in | rain mn in | humidity % | barometer mb |
| 20260506103055 | 66 | 133 | 3.5 | 16.5 | 0.00 | 0.00 | 0.00 | 53 | 1011.6 |
| 20260506101552 | 67 | 104 | 8.7 | 16.5 | 0.00 | 0.00 | 0.00 | 50 | 1011.0 |
| 20260506100106 | 67 | 76 | 0.9 | 2.6 | 0.00 | 0.00 | 0.00 | 49 | 1010.9 |
| 20260506094603 | 67 | 0 | 0.0 | 2.6 | 0.00 | 0.00 | 0.00 | 47 | 1010.8 |
| 20260506093051 | 68 | 279 | 0.9 | 1.7 | 0.00 | 0.00 | 0.00 | 48 | 1010.9 |
| 20260506091552 | 68 | 212 | 0.9 | 2.6 | 0.00 | 0.00 | 0.00 | 47 | 1010.7 |
| 20260506090051 | 69 | 250 | 0.9 | 2.6 | 0.00 | 0.00 | 0.00 | 47 | 1010.8 |
| 20260506084554 | 69 | 235 | 1.7 | 4.3 | 0.00 | 0.00 | 0.00 | 44 | 1010.6 |
| 20260506083055 | 68 | 207 | 1.7 | 3.5 | 0.00 | 0.00 | 0.00 | 45 | 1010.5 |
| 20260506081602 | 68 | 196 | 0.0 | 2.6 | 0.00 | 0.00 | 0.00 | 46 | 1010.4 |
| 20260506073057 | 68 | 193 | 0.9 | 2.6 | 0.00 | 0.00 | 0.00 | 48 | 1010.6 |
| 20260506071553 | 68 | 254 | 0.9 | 2.6 | 0.00 | 0.00 | 0.00 | 47 | 1010.6 |
| 20260506061557 | 69 | 158 | 0.9 | 3.5 | 0.00 | 0.00 | 0.00 | 44 | 1010.8 |
| 20260506044557 | 71 | 9 | 1.7 | 3.5 | 0.00 | 0.00 | 0.00 | 41 | 1010.4 |
| 20260506043110 | 72 | 162 | 0.9 | 3.5 | 0.00 | 0.00 | 0.00 | 39 | 1010.3 |
| 20260506041558 | 72 | 178 | 1.7 | 4.3 | 0.00 | 0.00 | 0.00 | 38 | 1010.4 |
| 20260506040056 | 73 | 163 | 2.6 | 6.1 | 0.00 | 0.00 | 0.00 | 37 | 1009.9 |
| 20260506034612 | 74 | 165 | 3.5 | 7.8 | 0.00 | 0.00 | 0.00 | 36 | 1009.8 |
| 20260506033055 | 74 | 147 | 5.2 | 8.7 | 0.00 | 0.00 | 0.00 | 35 | 1009.4 |
| 20260506031555 | 74 | 129 | 1.7 | 5.2 | 0.00 | 0.00 | 0.00 | 35 | 1009.1 |
| 20260506030055 | 75 | 139 | 1.7 | 4.3 | 0.00 | 0.00 | 0.00 | 35 | 1008.9 |
| 20260506024556 | 75 | 153 | 1.7 | 3.5 | 0.00 | 0.00 | 0.00 | 34 | 1008.7 |
| 20260506023101 | 76 | 162 | 0.0 | 1.7 | 0.00 | 0.00 | 0.00 | 32 | 1008.6 |
| 20260506021556 | 77 | 325 | 1.7 | 4.3 | 0.00 | 0.00 | 0.00 | 32 | 1008.6 |
| 20260506020058 | 77 | 314 | 1.7 | 3.5 | 0.00 | 0.00 | 0.00 | 31 | 1008.6 |
| 20260506014557 | 78 | 334 | 2.6 | 7.8 | 0.00 | 0.00 | 0.00 | 30 | 1008.5 |
| 20260506013106 | 78 | 239 | 3.5 | 9.6 | 0.00 | 0.00 | 0.00 | 30 | 1008.4 |
| 20260506011558 | 79 | 319 | 7.8 | 13.9 | 0.00 | 0.00 | 0.00 | 30 | 1008.2 |
| 20260506010119 | 79 | 279 | 7.0 | 13.9 | 0.00 | 0.00 | 0.00 | 29 | 1008.3 |
| 20260506004552 | 80 | 279 | 8.7 | 13.9 | 0.00 | 0.00 | 0.00 | 29 | 1008.3 |
| 20260506003056 | 80 | 310 | 10.4 | 18.2 | 0.00 | 0.00 | 0.00 | 28 | 1008.6 |
| 20260506001601 | 79 | 298 | 10.4 | 25.2 | 0.00 | 0.00 | 0.00 | 28 | 1008.9 |
| 20260506000056 | 80 | 272 | 8.7 | 24.3 | 0.00 | 0.00 | 0.00 | 27 | 1009.2 |
| 20260505234556 | 80 | 271 | 14.8 | 23.5 | 0.00 | 0.00 | 0.00 | 27 | 1009.0 |
| 20260505233106 | 80 | 289 | 14.8 | 26.9 | 0.00 | 0.00 | 0.00 | 27 | 1009.0 |
| 20260505231556 | 81 | 290 | 13.0 | 27.8 | 0.00 | 0.00 | 0.00 | 26 | 1009.0 |
| 20260505230100 | 81 | 259 | 13.0 | 23.5 | 0.00 | 0.00 | 0.00 | 27 | 1008.9 |
| 20260505224552 | 81 | 307 | 13.9 | 26.9 | 0.00 | 0.00 | 0.00 | 27 | 1008.8 |
| 20260505223058 | 82 | 257 | 13.9 | 26.1 | 0.00 | 0.00 | 0.00 | 26 | 1009.0 |
| 20260505221555 | 82 | 300 | 17.4 | 33.9 | 0.00 | 0.00 | 0.00 | 25 | 1009.0 |
| 20260505220055 | 82 | 259 | 16.5 | 25.2 | 0.00 | 0.00 | 0.00 | 24 | 1009.0 |
| 20260505214609 | 82 | 277 | 13.9 | 26.9 | 0.00 | 0.00 | 0.00 | 24 | 1009.2 |
| 20260505213059 | 82 | 261 | 14.8 | 26.9 | 0.00 | 0.00 | 0.00 | 25 | 1009.2 |
| 20260505211552 | 83 | 252 | 13.0 | 24.3 | 0.00 | 0.00 | 0.00 | 24 | 1009.1 |
| 20260505210055 | 84 | 265 | 13.9 | 22.6 | 0.00 | 0.00 | 0.00 | 23 | 1009.5 |
| 20260505204553 | 84 | 262 | 15.6 | 26.1 | 0.00 | 0.00 | 0.00 | 22 | 1009.4 |
| 20260505203050 | 84 | 265 | 16.5 | 26.1 | 0.00 | 0.00 | 0.00 | 22 | 1009.5 |
| 20260505201557 | 84 | 219 | 10.4 | 24.3 | 0.00 | 0.00 | 0.00 | 22 | 1009.6 |
| 20260505200056 | 84 | 284 | 13.0 | 17.4 | 0.00 | 0.00 | 0.00 | 23 | 1009.6 |
| 20260505194553 | 83 | 229 | 11.3 | 16.5 | 0.00 | 0.00 | 0.00 | 23 | 1009.6 |
| 20260505193053 | 83 | 271 | 8.7 | 18.2 | 0.00 | 0.00 | 0.00 | 23 | 1009.8 |
| 20260505191605 | 84 | 262 | 13.0 | 22.6 | 0.00 | 0.00 | 0.00 | 23 | 1009.9 |
| 20260505184558 | 84 | 248 | 10.4 | 20.9 | 0.00 | 0.00 | 0.00 | 24 | 1010.1 |
| 20260505183114 | 84 | 275 | 12.2 | 23.5 | 0.00 | 0.00 | 0.00 | 24 | 1010.1 |
| 20260505181553 | 83 | 315 | 9.6 | 22.6 | 0.00 | 0.00 | 0.00 | 26 | 1010.3 |
| 20260505180057 | 83 | 306 | 11.3 | 19.1 | 0.00 | 0.00 | 0.00 | 24 | 1010.5 |
| 20260505174551 | 83 | 284 | 10.4 | 20.9 | 0.00 | 0.00 | 0.00 | 25 | 1010.3 |
| 20260505173054 | 82 | 298 | 11.3 | 22.6 | 0.00 | 0.00 | 0.00 | 26 | 1010.7 |
| 20260505171558 | 82 | 265 | 11.3 | 20.9 | 0.00 | 0.00 | 0.00 | 25 | 1010.7 |
| 20260505170053 | 82 | 301 | 10.4 | 15.6 | 0.00 | 0.00 | 0.00 | 25 | 1010.7 |
| 20260505164553 | 81 | 297 | 7.0 | 14.8 | 0.00 | 0.00 | 0.00 | 27 | 1010.6 |
| 20260505163053 | 80 | 270 | 7.8 | 13.9 | 0.00 | 0.00 | 0.00 | 29 | 1010.7 |
| 20260505161615 | 79 | 243 | 7.0 | 13.9 | 0.00 | 0.00 | 0.00 | 31 | 1010.6 |
| 20260505153056 | 77 | 265 | 7.0 | 13.0 | 0.00 | 0.00 | 0.00 | 33 | 1010.2 |
| 20260505151614 | 76 | 266 | 7.8 | 12.2 | 0.00 | 0.00 | 0.00 | 33 | 1010.1 |
| 20260505124555 | 65 | 234 | 4.3 | 7.0 | 0.00 | 0.00 | 0.00 | 78 | 1009.1 |
| 20260505123051 | 65 | 221 | 3.5 | 6.1 | 0.00 | 0.00 | 0.00 | 78 | 1008.8 |
| 20260505121553 | 65 | 207 | 2.6 | 6.1 | 0.00 | 0.00 | 0.00 | 78 | 1008.7 |
| 20260505120110 | 65 | 225 | 1.7 | 5.2 | 0.00 | 0.00 | 0.00 | 79 | 1008.6 |
| 20260505114553 | 65 | 193 | 2.6 | 6.1 | 0.00 | 0.00 | 0.00 | 79 | 1008.2 |
| 20260505113052 | 66 | 221 | 2.6 | 6.1 | 0.00 | 0.00 | 0.00 | 78 | 1008.2 |
| 20260505111552 | 66 | 227 | 2.6 | 7.0 | 0.00 | 0.00 | 0.00 | 78 | 1008.2 |